Time,TemperatureF,DewpointF,PressureIn,WindDirection,WindDirectionDegrees,WindSpeedMPH,WindSpeedGustMPH,Humidity,HourlyPrecipIn,Conditions,Clouds,dailyrainin,SolarRadiationWatts/m^2,SoftwareType,DateUTC
2013-11-07 00:00:00,68.8,66.1,30.00,NNE,23,2.0,2.0,91,0.00,,,0.06,0,Wunderground v.1.15,2013-11-07 05:00:00,
2013-11-07 00:05:00,68.6,65.9,30.00,NNE,23,2.0,2.0,91,0.00,,,0.00,0,Wunderground v.1.15,2013-11-07 05:05:00,
2013-11-07 00:10:00,68.6,65.9,30.00,NNE,23,2.0,2.0,91,0.00,,,0.00,0,Wunderground v.1.15,2013-11-07 05:10:00,
2013-11-07 00:15:00,68.6,65.9,30.00,NNE,23,1.0,2.0,91,0.00,,,0.00,0,Wunderground v.1.15,2013-11-07 05:15:00,
2013-11-07 00:20:00,68.6,65.9,30.00,NNE,23,1.0,1.0,91,0.00,,,0.00,0,Wunderground v.1.15,2013-11-07 05:20:00,
2013-11-07 00:24:00,68.6,65.9,30.00,NNE,23,1.0,1.0,91,0.00,,,0.00,0,Wunderground v.1.15,2013-11-07 05:24:00,
2013-11-07 00:30:00,68.6,65.9,29.99,NNE,23,1.0,1.0,91,0.00,,,0.00,0,Wunderground v.1.15,2013-11-07 05:30:00,
2013-11-07 00:39:00,68.6,65.9,29.99,NNE,23,1.0,1.0,91,0.00,,,0.00,0,Wunderground v.1.15,2013-11-07 05:39:00,
2013-11-07 00:45:00,68.6,65.9,29.99,NNE,23,1.0,3.0,91,0.00,,,0.00,0,Wunderground v.1.15,2013-11-07 05:45:00,
2013-11-07 00:55:00,68.4,65.7,29.99,NNE,23,2.0,2.0,91,0.00,,,0.00,0,Wunderground v.1.15,2013-11-07 05:55:00,
2013-11-07 01:00:00,68.4,65.7,29.99,NNE,23,1.0,1.0,91,0.00,,,0.00,0,Wunderground v.1.15,2013-11-07 06:00:00,
2013-11-07 01:05:00,68.3,65.6,29.99,NNE,23,0.0,1.0,91,0.00,,,0.00,0,Wunderground v.1.15,2013-11-07 06:05:00,
2013-11-07 01:15:00,68.3,65.9,29.98,NNE,23,0.0,2.0,92,0.00,,,0.00,0,Wunderground v.1.15,2013-11-07 06:15:00,
2013-11-07 01:25:00,68.3,65.9,29.98,NNE,23,1.0,1.0,92,0.00,,,0.00,0,Wunderground v.1.15,2013-11-07 06:25:00,
2013-11-07 01:34:00,68.1,65.7,29.98,NNE,23,1.0,3.0,92,0.00,,,0.00,0,Wunderground v.1.15,2013-11-07 06:34:00,
2013-11-07 01:40:00,68.3,65.9,29.98,North,355,2.0,3.0,92,0.00,,,0.00,0,Wunderground v.1.15,2013-11-07 06:40:00,
2013-11-07 01:50:00,68.3,65.9,29.98,NW,321,2.0,3.0,92,0.00,,,0.00,0,Wunderground v.1.15,2013-11-07 06:50:00,
2013-11-07 01:59:00,68.3,65.9,29.97,NNW,340,3.0,3.0,92,0.00,,,0.00,0,Wunderground v.1.15,2013-11-07 06:59:00,
2013-11-07 02:05:00,68.3,65.9,29.97,NNW,330,3.0,3.0,92,0.00,,,0.00,0,Wunderground v.1.15,2013-11-07 07:05:00,
2013-11-07 02:15:00,68.1,65.7,29.97,NNW,330,2.0,2.0,92,0.00,,,0.00,0,Wunderground v.1.15,2013-11-07 07:15:00,
2013-11-07 02:25:00,68.1,65.7,29.97,NW,311,2.0,3.0,92,0.00,,,0.00,0,Wunderground v.1.15,2013-11-07 07:25:00,
2013-11-07 02:35:00,68.1,65.7,29.97,NW,311,2.0,3.0,92,0.00,,,0.00,0,Wunderground v.1.15,2013-11-07 07:35:00,
2013-11-07 02:45:00,68.1,65.7,29.96,NW,311,1.0,1.0,92,0.00,,,0.00,0,Wunderground v.1.15,2013-11-07 07:45:00,
2013-11-07 02:54:00,67.9,65.8,29.96,NW,311,1.0,2.0,93,0.00,,,0.00,0,Wunderground v.1.15,2013-11-07 07:54:00,
2013-11-07 03:00:00,68.1,66.0,29.96,NW,311,1.0,2.0,93,0.00,,,0.00,0,Wunderground v.1.15,2013-11-07 08:00:00,
2013-11-07 03:05:00,68.1,66.0,29.96,NW,311,1.0,2.0,93,0.00,,,0.00,0,Wunderground v.1.15,2013-11-07 08:05:00,
2013-11-07 03:15:00,68.1,66.0,29.96,NW,311,2.0,2.0,93,0.00,,,0.00,0,Wunderground v.1.15,2013-11-07 08:15:00,
2013-11-07 03:25:00,68.1,66.0,29.96,NW,305,2.0,2.0,93,0.00,,,0.00,0,Wunderground v.1.15,2013-11-07 08:25:00,
2013-11-07 03:35:00,68.1,66.0,29.95,NNW,344,2.0,2.0,93,0.00,,,0.00,0,Wunderground v.1.15,2013-11-07 08:35:00,
2013-11-07 03:45:00,68.1,66.0,29.95,NNW,344,2.0,2.0,93,0.00,,,0.00,0,Wunderground v.1.15,2013-11-07 08:45:00,
2013-11-07 03:54:00,68.1,66.0,29.95,NNW,344,2.0,2.0,93,0.00,,,0.00,0,Wunderground v.1.15,2013-11-07 08:54:00,
2013-11-07 04:00:00,68.1,66.0,29.95,NNW,344,1.0,1.0,93,0.00,,,0.00,0,Wunderground v.1.15,2013-11-07 09:00:00,
2013-11-07 04:05:00,68.1,66.0,29.95,NNW,344,0.0,3.0,93,0.00,,,0.00,0,Wunderground v.1.15,2013-11-07 09:05:00,
2013-11-07 04:15:00,67.9,65.8,29.95,NNE,21,3.0,3.0,93,0.00,,,0.00,0,Wunderground v.1.15,2013-11-07 09:15:00,
2013-11-07 04:24:00,67.9,65.8,29.95,North,5,2.0,3.0,93,0.00,,,0.00,0,Wunderground v.1.15,2013-11-07 09:24:00,
2013-11-07 04:30:00,67.8,65.7,29.94,North,5,1.0,1.0,93,0.00,,,0.00,0,Wunderground v.1.15,2013-11-07 09:30:00,
2013-11-07 04:39:00,67.6,65.5,29.94,North,5,1.0,1.0,93,0.00,,,0.00,0,Wunderground v.1.15,2013-11-07 09:39:00,
2013-11-07 04:45:00,67.6,65.5,29.95,North,5,0.0,1.0,93,0.00,,,0.00,0,Wunderground v.1.15,2013-11-07 09:45:00,
2013-11-07 04:55:00,67.4,65.3,29.95,North,5,0.0,0.0,93,0.00,,,0.00,0,Wunderground v.1.15,2013-11-07 09:55:00,
2013-11-07 05:05:00,67.6,65.5,29.95,North,5,1.0,2.0,93,0.00,,,0.00,0,Wunderground v.1.15,2013-11-07 10:05:00,
2013-11-07 05:15:00,67.4,65.3,29.95,North,5,1.0,2.0,93,0.00,,,0.00,0,Wunderground v.1.15,2013-11-07 10:15:00,
2013-11-07 05:25:00,67.6,65.8,29.95,North,5,1.0,2.0,94,0.00,,,0.00,0,Wunderground v.1.15,2013-11-07 10:25:00,
2013-11-07 05:34:00,67.6,65.8,29.94,NW,315,2.0,2.0,94,0.00,,,0.00,0,Wunderground v.1.15,2013-11-07 10:34:00,
2013-11-07 05:40:00,67.6,65.8,29.94,NNW,328,2.0,3.0,94,0.00,,,0.00,0,Wunderground v.1.15,2013-11-07 10:40:00,
2013-11-07 05:50:00,67.6,65.8,29.95,NW,314,3.0,3.0,94,0.00,,,0.00,0,Wunderground v.1.15,2013-11-07 10:50:00,
2013-11-07 05:59:00,67.6,65.8,29.95,NW,314,2.0,2.0,94,0.00,,,0.00,0,Wunderground v.1.15,2013-11-07 10:59:00,
2013-11-07 06:05:00,67.4,65.6,29.95,North,360,2.0,2.0,94,0.00,,,0.00,0,Wunderground v.1.15,2013-11-07 11:05:00,
2013-11-07 06:15:00,67.3,66.7,29.95,NNW,340,1.0,4.0,98,0.00,,,0.00,0,Wunderground v.1.15,2013-11-07 11:15:00,
2013-11-07 06:20:00,67.3,65.5,29.95,NNW,340,2.0,4.0,94,0.00,,,0.00,0,Wunderground v.1.15,2013-11-07 11:20:00,
2013-11-07 06:29:00,67.3,65.5,29.95,NNE,22,2.0,2.0,94,0.00,,,0.00,0,Wunderground v.1.15,2013-11-07 11:29:00,
2013-11-07 06:35:00,67.3,65.2,29.95,NNE,22,2.0,2.0,93,0.00,,,0.00,0,Wunderground v.1.15,2013-11-07 11:35:00,
2013-11-07 06:39:00,67.4,65.3,29.95,NNE,22,2.0,2.0,93,0.00,,,0.00,0,Wunderground v.1.15,2013-11-07 11:39:00,
2013-11-07 06:45:00,67.4,65.3,29.96,NNE,12,2.0,2.0,93,0.00,,,0.00,0,Wunderground v.1.15,2013-11-07 11:45:00,
2013-11-07 06:54:00,67.3,65.2,29.96,NW,314,3.0,4.0,93,0.00,,,0.00,0,Wunderground v.1.15,2013-11-07 11:54:00,
2013-11-07 07:00:00,67.3,65.2,29.96,NNW,338,5.0,5.0,93,0.00,,,0.00,0,Wunderground v.1.15,2013-11-07 12:00:00,
2013-11-07 07:05:00,67.3,65.2,29.96,NW,321,4.0,5.0,93,0.00,,,0.00,0,Wunderground v.1.15,2013-11-07 12:05:00,
2013-11-07 07:15:00,67.3,64.9,29.96,NW,322,2.0,3.0,92,0.00,,,0.00,0,Wunderground v.1.15,2013-11-07 12:15:00,
2013-11-07 07:24:00,67.4,65.0,29.96,NW,322,0.0,1.0,92,0.00,,,0.00,0,Wunderground v.1.15,2013-11-07 12:24:00,
2013-11-07 07:30:00,67.4,65.0,29.97,NW,322,1.0,2.0,92,0.00,,,0.00,0,Wunderground v.1.15,2013-11-07 12:30:00,
2013-11-07 07:40:00,67.6,65.2,29.97,NW,322,2.0,2.0,92,0.00,,,0.00,21,Wunderground v.1.15,2013-11-07 12:40:00,
2013-11-07 07:49:00,67.4,64.7,29.98,North,5,2.0,2.0,91,0.00,,,0.00,18,Wunderground v.1.15,2013-11-07 12:49:00,
2013-11-07 07:55:00,67.6,64.9,29.98,North,5,2.0,2.0,91,0.00,,,0.00,18,Wunderground v.1.15,2013-11-07 12:55:00,
2013-11-07 08:05:00,67.6,64.9,29.98,NW,315,3.0,4.0,91,0.00,,,0.00,25,Wunderground v.1.15,2013-11-07 13:05:00,
2013-11-07 08:15:00,67.8,65.1,29.98,NNW,327,4.0,6.0,91,0.00,,,0.00,35,Wunderground v.1.15,2013-11-07 13:15:00,
2013-11-07 08:25:00,67.6,64.9,29.98,WNW,294,5.0,5.0,91,0.00,,,0.00,60,Wunderground v.1.15,2013-11-07 13:25:00,
2013-11-07 08:34:00,67.6,64.6,29.98,NW,317,3.0,4.0,90,0.00,,,0.00,51,Wunderground v.1.15,2013-11-07 13:34:00,
2013-11-07 08:40:00,67.6,64.6,29.98,NW,307,4.0,4.0,90,0.00,,,0.00,69,Wunderground v.1.15,2013-11-07 13:40:00,
2013-11-07 08:50:00,67.8,64.8,29.99,WNW,282,4.0,5.0,90,0.00,,,0.00,144,Wunderground v.1.15,2013-11-07 13:50:00,
2013-11-07 09:00:00,67.8,64.8,29.99,NNW,346,4.0,4.0,90,0.00,,,0.00,128,Wunderground v.1.15,2013-11-07 14:00:00,
2013-11-07 09:05:00,67.6,64.6,29.99,NNW,343,4.0,5.0,90,0.00,,,0.00,81,Wunderground v.1.15,2013-11-07 14:05:00,
2013-11-07 09:14:00,67.6,64.2,30.00,NW,313,4.0,5.0,89,0.00,,,0.00,62,Wunderground v.1.15,2013-11-07 14:14:00,
2013-11-07 09:20:00,67.4,64.4,30.00,NW,307,4.0,4.0,90,0.00,,,0.00,67,Wunderground v.1.15,2013-11-07 14:20:00,
2013-11-07 09:29:00,67.4,64.4,30.00,WNW,292,3.0,6.0,90,0.00,,,0.00,90,Wunderground v.1.15,2013-11-07 14:29:00,
2013-11-07 09:35:00,67.3,64.3,30.00,WNW,303,4.0,6.0,90,0.00,,,0.00,100,Wunderground v.1.15,2013-11-07 14:35:00,
2013-11-07 09:45:00,67.4,64.4,29.99,NW,323,4.0,6.0,90,0.00,,,0.00,146,Wunderground v.1.15,2013-11-07 14:45:00,
2013-11-07 09:54:00,67.4,64.4,29.99,WNW,283,4.0,5.0,90,0.00,,,0.00,128,Wunderground v.1.15,2013-11-07 14:54:00,
2013-11-07 10:00:00,67.6,64.6,29.99,WNW,289,4.0,4.0,90,0.00,,,0.00,125,Wunderground v.1.15,2013-11-07 15:00:00,
2013-11-07 10:05:00,67.6,64.6,29.99,WNW,290,4.0,6.0,90,0.00,,,0.00,111,Wunderground v.1.15,2013-11-07 15:05:00,
2013-11-07 10:14:00,67.6,64.2,29.99,WNW,297,3.0,4.0,89,0.00,,,0.00,135,Wunderground v.1.15,2013-11-07 15:14:00,
2013-11-07 10:20:00,67.6,64.2,29.99,WNW,294,4.0,4.0,89,0.00,,,0.00,171,Wunderground v.1.15,2013-11-07 15:20:00,
2013-11-07 10:30:00,67.6,64.2,29.99,WNW,294,4.0,4.0,89,0.00,,,0.00,434,Wunderground v.1.15,2013-11-07 15:30:00,
2013-11-07 10:40:00,67.9,64.5,29.99,West,276,5.0,5.0,89,0.00,,,0.00,267,Wunderground v.1.15,2013-11-07 15:40:00,
2013-11-07 10:49:00,67.9,64.5,29.99,West,275,4.0,4.0,89,0.00,,,0.00,243,Wunderground v.1.15,2013-11-07 15:49:00,
2013-11-07 10:55:00,67.9,64.2,29.99,West,275,4.0,4.0,88,0.00,,,0.00,299,Wunderground v.1.15,2013-11-07 15:55:00,
2013-11-07 11:05:00,68.4,64.7,29.98,West,275,2.0,3.0,88,0.00,,,0.00,445,Wunderground v.1.15,2013-11-07 16:05:00,
2013-11-07 11:15:00,68.6,64.6,29.98,West,275,2.0,3.0,87,0.00,,,0.00,283,Wunderground v.1.15,2013-11-07 16:15:00,
2013-11-07 11:25:00,68.8,64.8,29.98,West,275,2.0,2.0,87,0.00,,,0.00,246,Wunderground v.1.15,2013-11-07 16:25:00,
2013-11-07 11:34:00,68.9,64.5,29.98,West,275,2.0,2.0,86,0.00,,,0.00,285,Wunderground v.1.15,2013-11-07 16:34:00,
2013-11-07 11:40:00,69.1,64.7,29.98,West,269,2.0,2.0,86,0.00,,,0.00,287,Wunderground v.1.15,2013-11-07 16:40:00,
2013-11-07 11:55:00,69.6,64.9,29.98,West,269,2.0,3.0,85,0.00,,,0.00,388,Wunderground v.1.15,2013-11-07 16:55:00,
2013-11-07 12:00:00,69.8,64.7,29.97,West,269,2.0,2.0,84,0.00,,,0.00,308,Wunderground v.1.15,2013-11-07 17:00:00,
2013-11-07 12:05:00,69.9,64.8,29.97,West,269,2.0,2.0,84,0.00,,,0.00,313,Wunderground v.1.15,2013-11-07 17:05:00,
2013-11-07 12:15:00,70.4,64.6,29.96,West,269,2.0,3.0,82,0.00,,,0.00,411,Wunderground v.1.15,2013-11-07 17:15:00,
2013-11-07 12:25:00,70.6,64.8,29.96,West,269,3.0,3.0,82,0.00,,,0.00,404,Wunderground v.1.15,2013-11-07 17:25:00,
2013-11-07 12:30:00,70.8,65.0,29.95,West,269,3.0,3.0,82,0.00,,,0.00,330,Wunderground v.1.15,2013-11-07 17:30:00,
2013-11-07 12:40:00,70.9,64.8,29.95,West,269,2.0,2.0,81,0.00,,,0.00,353,Wunderground v.1.15,2013-11-07 17:40:00,
2013-11-07 12:50:00,71.3,64.8,29.94,West,269,1.0,2.0,80,0.00,,,0.00,752,Wunderground v.1.15,2013-11-07 17:50:00,
2013-11-07 13:00:00,71.5,65.0,29.93,West,269,3.0,3.0,80,0.00,,,0.00,422,Wunderground v.1.15,2013-11-07 18:00:00,
2013-11-07 13:05:00,71.6,65.1,29.93,West,269,3.0,3.0,80,0.00,,,0.00,700,Wunderground v.1.15,2013-11-07 18:05:00,
2013-11-07 13:15:00,72.0,65.5,29.93,West,263,2.0,2.0,80,0.00,,,0.00,677,Wunderground v.1.15,2013-11-07 18:15:00,
2013-11-07 13:20:00,72.3,65.1,29.93,West,263,3.0,3.0,78,0.00,,,0.00,691,Wunderground v.1.15,2013-11-07 18:20:00,
2013-11-07 13:30:00,74.0,60.6,29.92,WNW,289,4.0,4.0,63,0.00,,,0.00,705,Wunderground v.1.15,2013-11-07 18:30:00,
2013-11-07 13:35:00,74.6,62.1,29.92,NNW,338,4.0,7.0,65,0.00,,,0.00,684,Wunderground v.1.15,2013-11-07 18:35:00,
2013-11-07 13:45:00,75.4,60.5,29.92,WNW,292,4.0,4.0,60,0.00,,,0.00,608,Wunderground v.1.15,2013-11-07 18:45:00,
2013-11-07 13:55:00,75.6,60.3,29.92,NNE,15,4.0,11.0,59,0.00,,,0.00,687,Wunderground v.1.15,2013-11-07 18:55:00,
2013-11-07 14:00:00,76.0,61.6,29.91,NW,323,4.0,6.0,61,0.00,,,0.00,728,Wunderground v.1.15,2013-11-07 19:00:00,
2013-11-07 14:05:00,75.6,61.2,29.91,NW,313,4.0,6.0,61,0.00,,,0.00,710,Wunderground v.1.15,2013-11-07 19:05:00,
2013-11-07 14:15:00,76.0,62.5,29.91,NNW,333,4.0,5.0,63,0.00,,,0.00,253,Wunderground v.1.15,2013-11-07 19:15:00,
2013-11-07 14:20:00,75.8,62.3,29.91,ENE,69,4.0,4.0,63,0.00,,,0.00,357,Wunderground v.1.15,2013-11-07 19:20:00,
2013-11-07 14:30:00,75.4,62.8,29.90,NE,49,4.0,4.0,65,0.00,,,0.00,408,Wunderground v.1.15,2013-11-07 19:30:00,
2013-11-07 14:35:00,75.4,63.2,29.90,WNW,286,5.0,5.0,66,0.00,,,0.00,715,Wunderground v.1.15,2013-11-07 19:35:00,
2013-11-07 14:45:00,75.3,62.3,29.90,NNW,339,4.0,6.0,64,0.00,,,0.00,248,Wunderground v.1.15,2013-11-07 19:45:00,
2013-11-07 14:55:00,75.3,62.7,29.90,North,360,3.0,3.0,65,0.00,,,0.00,506,Wunderground v.1.15,2013-11-07 19:55:00,
2013-11-07 15:05:00,75.8,62.3,29.90,NNW,340,3.0,4.0,63,0.00,,,0.00,552,Wunderground v.1.15,2013-11-07 20:05:00,
2013-11-07 15:15:00,75.8,62.8,29.90,NNW,333,4.0,7.0,64,0.00,,,0.00,248,Wunderground v.1.15,2013-11-07 20:15:00,
2013-11-07 15:25:00,75.8,63.2,29.90,NW,317,4.0,4.0,65,0.00,,,0.00,475,Wunderground v.1.15,2013-11-07 20:25:00,
2013-11-07 15:35:00,76.0,62.0,29.90,NNW,327,4.0,6.0,62,0.00,,,0.00,455,Wunderground v.1.15,2013-11-07 20:35:00,
2013-11-07 15:45:00,76.1,62.6,29.90,NNW,333,4.0,7.0,63,0.00,,,0.00,178,Wunderground v.1.15,2013-11-07 20:45:00,
2013-11-07 15:50:00,76.1,62.6,29.90,NW,316,5.0,5.0,63,0.00,,,0.00,353,Wunderground v.1.15,2013-11-07 20:50:00,
2013-11-07 16:00:00,76.5,62.0,29.90,North,355,4.0,4.0,61,0.00,,,0.00,343,Wunderground v.1.15,2013-11-07 21:00:00,
2013-11-07 16:05:00,76.7,62.2,29.90,North,5,5.0,5.0,61,0.00,,,0.00,294,Wunderground v.1.15,2013-11-07 21:05:00,
2013-11-07 16:15:00,76.7,62.7,29.91,NW,314,5.0,5.0,62,0.00,,,0.00,248,Wunderground v.1.15,2013-11-07 21:15:00,
2013-11-07 16:25:00,76.7,63.2,29.91,NE,34,4.0,5.0,63,0.00,,,0.00,229,Wunderground v.1.15,2013-11-07 21:25:00,
2013-11-07 16:35:00,76.7,62.7,29.91,NNE,22,4.0,4.0,62,0.00,,,0.00,209,Wunderground v.1.15,2013-11-07 21:35:00,
2013-11-07 16:40:00,76.5,62.5,29.91,NNE,22,2.0,2.0,62,0.00,,,0.00,193,Wunderground v.1.15,2013-11-07 21:40:00,
2013-11-07 16:50:00,76.0,62.5,29.91,NNE,22,1.0,1.0,63,0.00,,,0.00,79,Wunderground v.1.15,2013-11-07 21:50:00,
2013-11-07 17:00:00,75.3,64.0,29.91,North,10,1.0,1.0,68,0.00,,,0.00,83,Wunderground v.1.15,2013-11-07 22:00:00,
2013-11-07 17:05:00,74.7,63.9,29.91,North,10,0.0,1.0,69,0.00,,,0.00,90,Wunderground v.1.15,2013-11-07 22:05:00,
2013-11-07 17:15:00,73.9,64.3,29.91,North,10,1.0,1.0,72,0.00,,,0.00,42,Wunderground v.1.15,2013-11-07 22:15:00,
2013-11-07 17:20:00,73.2,64.0,29.91,North,10,1.0,1.0,73,0.00,,,0.00,21,Wunderground v.1.15,2013-11-07 22:20:00,
2013-11-07 17:30:00,72.1,64.9,29.91,North,10,1.0,1.0,78,0.00,,,0.00,0,Wunderground v.1.15,2013-11-07 22:30:00,
2013-11-07 17:40:00,71.1,64.6,29.91,North,10,0.0,1.0,80,0.00,,,0.00,0,Wunderground v.1.15,2013-11-07 22:40:00,
2013-11-07 17:45:00,70.8,64.3,29.91,North,10,1.0,3.0,80,0.00,,,0.00,0,Wunderground v.1.15,2013-11-07 22:45:00,
2013-11-07 17:55:00,70.3,64.5,29.91,North,10,2.0,2.0,82,0.00,,,0.00,0,Wunderground v.1.15,2013-11-07 22:55:00,
2013-11-07 18:00:00,69.9,64.5,29.91,North,10,2.0,3.0,83,0.00,,,0.00,0,Wunderground v.1.15,2013-11-07 23:00:00,
2013-11-07 18:05:00,69.8,64.4,29.91,North,10,2.0,3.0,83,0.00,,,0.00,0,Wunderground v.1.15,2013-11-07 23:05:00,
2013-11-07 18:15:00,69.3,64.6,29.92,North,10,2.0,2.0,85,0.00,,,0.00,0,Wunderground v.1.15,2013-11-07 23:15:00,
2013-11-07 18:25:00,68.9,64.5,29.92,North,10,1.0,2.0,86,0.00,,,0.00,0,Wunderground v.1.15,2013-11-07 23:25:00,
2013-11-07 18:35:00,68.6,64.6,29.92,North,10,1.0,1.0,87,0.00,,,0.00,0,Wunderground v.1.15,2013-11-07 23:35:00,
2013-11-07 18:40:00,68.4,64.7,29.92,North,10,1.0,1.0,88,0.00,,,0.00,0,Wunderground v.1.15,2013-11-07 23:40:00,
2013-11-07 18:50:00,68.3,64.6,29.92,North,10,0.0,0.0,88,0.00,,,0.00,0,Wunderground v.1.15,2013-11-07 23:50:00,
2013-11-07 19:00:00,68.1,64.4,29.93,North,10,0.0,0.0,88,0.00,,,0.00,0,Wunderground v.1.15,2013-11-08 00:00:00,
2013-11-07 19:05:00,67.9,64.5,29.93,North,10,0.0,0.0,89,0.00,,,0.00,0,Wunderground v.1.15,2013-11-08 00:05:00,
2013-11-07 19:15:00,67.6,64.2,29.93,North,10,1.0,1.0,89,0.00,,,0.00,0,Wunderground v.1.15,2013-11-08 00:15:00,
2013-11-07 19:20:00,67.4,64.0,29.93,North,10,1.0,1.0,89,0.00,,,0.00,0,Wunderground v.1.15,2013-11-08 00:20:00,
2013-11-07 19:30:00,67.1,64.1,29.93,North,10,1.0,1.0,90,0.00,,,0.00,0,Wunderground v.1.15,2013-11-08 00:30:00,
2013-11-07 19:35:00,67.1,64.1,29.93,North,10,1.0,1.0,90,0.00,,,0.00,0,Wunderground v.1.15,2013-11-08 00:35:00,
2013-11-07 19:45:00,67.1,64.4,29.93,North,10,0.0,0.0,91,0.00,,,0.00,0,Wunderground v.1.15,2013-11-08 00:45:00,
2013-11-07 19:55:00,66.9,64.2,29.93,North,10,0.0,0.0,91,0.00,,,0.00,0,Wunderground v.1.15,2013-11-08 00:55:00,
2013-11-07 20:00:00,66.9,64.2,29.93,North,10,0.0,0.0,91,0.00,,,0.00,0,Wunderground v.1.15,2013-11-08 01:00:00,
2013-11-07 20:05:00,66.8,64.1,29.93,North,10,0.0,1.0,91,0.00,,,0.00,0,Wunderground v.1.15,2013-11-08 01:05:00,
2013-11-07 20:15:00,66.4,63.7,29.94,North,10,1.0,1.0,91,0.00,,,0.00,0,Wunderground v.1.15,2013-11-08 01:15:00,
2013-11-07 20:25:00,66.3,63.9,29.94,North,10,1.0,1.0,92,0.00,,,0.00,0,Wunderground v.1.15,2013-11-08 01:25:00,
2013-11-07 20:35:00,66.3,63.9,29.94,North,10,0.0,1.0,92,0.00,,,0.00,0,Wunderground v.1.15,2013-11-08 01:35:00,
2013-11-07 20:40:00,66.1,63.7,29.94,North,10,0.0,1.0,92,0.00,,,0.00,0,Wunderground v.1.15,2013-11-08 01:40:00,
2013-11-07 20:50:00,65.8,63.4,29.94,North,10,0.0,0.0,92,0.00,,,0.00,0,Wunderground v.1.15,2013-11-08 01:50:00,
2013-11-07 21:00:00,65.8,63.7,29.94,North,10,0.0,0.0,93,0.00,,,0.00,0,Wunderground v.1.15,2013-11-08 02:00:00,
2013-11-07 21:05:00,65.6,63.5,29.94,North,10,0.0,1.0,93,0.00,,,0.00,0,Wunderground v.1.15,2013-11-08 02:05:00,
2013-11-07 21:15:00,65.6,63.5,29.95,North,10,0.0,0.0,93,0.00,,,0.00,0,Wunderground v.1.15,2013-11-08 02:15:00,
2013-11-07 21:25:00,65.6,63.5,29.95,ESE,108,0.0,2.0,93,0.00,,,0.00,0,Wunderground v.1.15,2013-11-08 02:25:00,
2013-11-07 21:35:00,66.8,64.7,29.95,East,97,1.0,1.0,93,0.00,,,0.00,0,Wunderground v.1.15,2013-11-08 02:35:00,
2013-11-07 21:40:00,67.1,65.0,29.95,East,97,0.0,0.0,93,0.00,,,0.00,0,Wunderground v.1.15,2013-11-08 02:40:00,
2013-11-07 21:50:00,67.6,65.5,29.95,WNW,292,1.0,1.0,93,0.00,,,0.00,0,Wunderground v.1.15,2013-11-08 02:50:00,
2013-11-07 22:00:00,68.4,65.7,29.95,NW,324,2.0,2.0,91,0.00,,,0.00,0,Wunderground v.1.15,2013-11-08 03:00:00,
2013-11-07 22:05:00,68.8,65.4,29.95,NNW,331,3.0,3.0,89,0.00,,,0.00,0,Wunderground v.1.15,2013-11-08 03:05:00,
2013-11-07 22:15:00,69.1,65.4,29.95,NNW,338,2.0,3.0,88,0.00,,,0.00,0,Wunderground v.1.15,2013-11-08 03:15:00,
2013-11-07 22:20:00,69.1,65.1,29.95,NNW,338,2.0,3.0,87,0.00,,,0.00,0,Wunderground v.1.15,2013-11-08 03:20:00,
2013-11-07 22:30:00,69.3,64.9,29.95,NNW,338,2.0,2.0,86,0.00,,,0.00,0,Wunderground v.1.15,2013-11-08 03:30:00,
2013-11-07 22:35:00,69.3,64.9,29.95,NNW,338,2.0,2.0,86,0.00,,,0.00,0,Wunderground v.1.15,2013-11-08 03:35:00,
2013-11-07 22:45:00,69.3,64.9,29.95,NNW,338,2.0,2.0,86,0.00,,,0.00,0,Wunderground v.1.15,2013-11-08 03:45:00,
2013-11-07 22:55:00,69.4,64.7,29.95,NNW,338,1.0,1.0,85,0.00,,,0.00,0,Wunderground v.1.15,2013-11-08 03:55:00,
2013-11-07 23:00:00,69.4,64.7,29.95,NNW,338,2.0,2.0,85,0.00,,,0.00,0,Wunderground v.1.15,2013-11-08 04:00:00,
2013-11-07 23:05:00,69.3,64.6,29.95,NNW,338,2.0,2.0,85,0.00,,,0.00,0,Wunderground v.1.15,2013-11-08 04:05:00,
2013-11-07 23:15:00,69.3,64.9,29.95,NW,313,2.0,3.0,86,0.00,,,0.00,0,Wunderground v.1.15,2013-11-08 04:15:00,
2013-11-07 23:20:00,69.3,64.9,29.95,NNW,345,3.0,4.0,86,0.00,,,0.00,0,Wunderground v.1.15,2013-11-08 04:20:00,
2013-11-07 23:30:00,69.3,64.9,29.95,North,355,4.0,5.0,86,0.00,,,0.00,0,Wunderground v.1.15,2013-11-08 04:30:00,
2013-11-07 23:40:00,69.3,64.6,29.95,NNW,342,4.0,6.0,85,0.00,,,0.00,0,Wunderground v.1.15,2013-11-08 04:40:00,
2013-11-07 23:45:00,69.3,64.6,29.95,NNW,329,4.0,6.0,85,0.00,,,0.00,0,Wunderground v.1.15,2013-11-08 04:45:00,
2013-11-07 23:55:00,69.3,64.3,29.95,North,355,5.0,5.0,84,0.00,,,0.00,0,Wunderground v.1.15,2013-11-08 04:55:00,